{"data":{"norad_id":52845,"epoch":"2026-05-25T00:47:23.957088Z","epoch_age_seconds":78939,"freshness":"FRESH","line1":"1 52845U 22062R   26145.03291617  .00000116  00000+0  25387-4 0  9999","line2":"2 52845  53.2137  51.4683 0001338  87.1565 272.9581 15.08839372217315","mean_motion":15.08839372,"eccentricity":0.0001338,"inclination_deg":53.2137,"raan_deg":51.4683,"arg_perigee_deg":87.1565,"mean_anomaly_deg":272.9581,"bstar":2.5387e-5,"rev_number":21731,"period_min":95.437594400208,"perigee_km":538.81969585666,"apogee_km":540.67092116241,"semimajor_km":6917.8823085095,"source":"CELESTRAK","updated_at":"2026-05-25T13:38:17.243734Z"}}